Regional Weather Roundup
Issued by NWS Cleveland, OH

Home | Current Version | Previous Version | Graphics & Text | Print | Product List | Glossary On
Versions: 1 2 3 4 5 6 7 8 9 10 11 12 13 14 15 16 17 18 19 20 21 22 23 24 25 26 27 28 29 30 31 32 33 34 35 36 37 38 39 40 41 42 43 44 45 46 47 48 49 50
000
ASUS41 KCLE 220910
RWRCLE
OHIO REGIONAL WEATHER ROUNDUP
NATIONAL WEATHER SERVICE WILMINGTON, OH
400 AM EST SUN JAN 22 2017

NOTE: "FAIR" INDICATES FEW OR NO CLOUDS BELOW 12,000 FEET WITH NO
SIGNIFICANT WEATHER AND/OR OBSTRUCTIONS TO VISIBILITY.

OHZ001>008-015>018-024>027-034-035-043-044-221000-
   NORTHWEST OHIO

CITY           SKY/WX    TMP DP  RH WIND       PRES   REMARKS
DEFIANCE       CLOUDY    46  46 100 CALM      29.59F
FINDLAY        LGT RAIN  50  47  89 W8        29.61F
TOLEDO EXPRESS FOG       39  39 100 CALM      29.60F VSB 1/2
TOLEDO EXEC    FOG       44  44 100 S3        29.62F VSB 1/4
LIMA           MOCLDY    47  47 100 CALM      29.61F FOG
$$

OHZ009>014-019>023-028>033-038-089-221000-
   NORTHEAST OHIO

CITY           SKY/WX    TMP DP  RH WIND       PRES   REMARKS
CLE-HOPKINS    MOCLDY    54  47  77 SE3       29.66F
CLE-LAKEFRONT  FAIR      56  50  80 SE8       29.62F
CUY CO. ARPT   NOT AVBL
LORAIN-ELYRIA  FAIR      50  47  89 S3        29.63F
ASHTABULA      CLOUDY    51  49  92 CALM      29.67S
AKRON-CANTON   CLOUDY    51  49  92 CALM      29.66F FOG
WOOSTER        CLOUDY    48  47  96 CALM      29.65F FOG
MANSFIELD      FAIR      49  48  97 S5        29.63F
YOUNGSTOWN     LGT RAIN  51  49  92 SE6       29.67F
$$

OHZ042-051>053-060>062-070>072-077>081-221000-
  SOUTHWEST OHIO

CITY           SKY/WX    TMP DP  RH WIND       PRES   REMARKS
CINC-COVINGTON FAIR      50  48  93 E3        29.57F
CINC-LUNKEN    FOG       42  42 100 S5        29.58F VSB 1/4
HAMILTON       FOG       39  39 100 CALM      29.58F VSB 3/4
DAYTON         FOG       45  44  97 E3        29.58F VSB 1/4
WRIGHT-PAT AFB FOG       41  41 100 N5        29.59F VSB 1/2
DAYTON GENERAL FAIR      47  46  97 NE8       29.56F FOG
WILMINGTON     FAIR      49  48  97 E5        29.57F
$$

OHZ036-037-039>041-045>050-054>059-063>069-073>076-082>088-221000-
  CENTRAL AND SOUTHEAST OHIO

CITY           SKY/WX    TMP DP  RH WIND       PRES   REMARKS
COLUMBUS       FAIR      49  47  93 E6        29.61F
OSU AIRPORT    FOG       47  47 100 E5        29.60F VSB 1/4
BOLTON FIELD   MOCLDY    49  49 100 E3        29.61F VSB 3/4
RICKENBACK AFB   N/A     46  46 100 E6        29.60F FOG
NEWARK         FOG       44  43  96 CALM      29.62F VSB 1/4
MARION         FOG       46  44  93 SE3       29.62F VSB 3/4
LANCASTER      CLOUDY    51  50  96 S3        29.62F
ZANESVILLE     CLOUDY    49  48  97 CALM      29.64F
NEW PHILLY     CLOUDY    50  50 100 SE7       29.65F FOG
$$



USA.gov is the U.S. government's official web portal to all federal, state and local government web resources and services.